| time (UTC) | temp F | wind direction | speed MPH | gust MPH | rain 1hr in | rain 24hr in | rain mn in | humidity % | barometer mb |
| 20260505235503 | 51 | 39 | 2.0 | 4.0 | 0.00 | 0.00 | 0.00 | 65 | 1012.8 |
| 20260505235003 | 51 | 46 | 2.0 | 4.0 | 0.00 | 0.00 | 0.00 | 65 | 1012.8 |
| 20260505234503 | 51 | 47 | 2.0 | 4.0 | 0.00 | 0.00 | 0.00 | 65 | 1012.9 |
| 20260505234003 | 51 | 31 | 2.0 | 4.0 | 0.00 | 0.00 | 0.00 | 65 | 1013.0 |
| 20260505233503 | 51 | 31 | 2.0 | 6.0 | 0.00 | 0.00 | 0.00 | 64 | 1012.8 |
| 20260505233003 | 52 | 40 | 2.0 | 7.0 | 0.00 | 0.00 | 0.00 | 64 | 1012.7 |
| 20260505232503 | 52 | 35 | 3.0 | 7.0 | 0.00 | 0.00 | 0.00 | 64 | 1012.7 |
| 20260505232003 | 52 | 23 | 3.0 | 9.0 | 0.00 | 0.00 | 0.00 | 64 | 1012.8 |
| 20260505231503 | 52 | 19 | 3.0 | 9.0 | 0.00 | 0.00 | 0.00 | 63 | 1012.8 |
| 20260505231003 | 52 | 20 | 4.0 | 8.0 | 0.00 | 0.00 | 0.00 | 62 | 1012.7 |
| 20260505230504 | 52 | 33 | 3.0 | 7.0 | 0.00 | 0.00 | 0.00 | 61 | 1012.7 |
| 20260505230003 | 52 | 58 | 3.0 | 7.0 | 0.00 | 0.00 | 0.00 | 60 | 1012.7 |
| 20260505225524 | 53 | 66 | 3.0 | 8.0 | 0.00 | 0.00 | 0.00 | 59 | 1012.5 |
| 20260505225003 | 53 | 51 | 3.0 | 8.0 | 0.00 | 0.00 | 0.00 | 57 | 1012.8 |
| 20260505224503 | 54 | 15 | 2.0 | 4.0 | 0.00 | 0.00 | 0.00 | 54 | 1012.5 |
| 20260505224004 | 55 | 350 | 2.0 | 4.0 | 0.00 | 0.00 | 0.00 | 54 | 1012.3 |
| 20260505223503 | 55 | 340 | 2.0 | 4.0 | 0.00 | 0.00 | 0.00 | 54 | 1012.3 |
| 20260505223003 | 55 | 330 | 2.0 | 6.0 | 0.00 | 0.00 | 0.00 | 53 | 1012.5 |
| 20260505222503 | 55 | 334 | 2.0 | 6.0 | 0.00 | 0.00 | 0.00 | 52 | 1012.3 |
| 20260505222004 | 55 | 337 | 2.0 | 4.0 | 0.00 | 0.00 | 0.00 | 52 | 1012.3 |
| 20260505221503 | 55 | 331 | 1.0 | 3.0 | 0.00 | 0.00 | 0.00 | 52 | 1012.2 |
| 20260505221003 | 55 | 331 | 1.0 | 3.0 | 0.00 | 0.00 | 0.00 | 52 | 1012.5 |
| 20260505220503 | 55 | 281 | 1.0 | 3.0 | 0.00 | 0.00 | 0.00 | 52 | 1012.3 |
| 20260505220004 | 55 | 288 | 2.0 | 6.0 | 0.00 | 0.00 | 0.00 | 52 | 1012.5 |
| 20260505215503 | 56 | 294 | 3.0 | 8.0 | 0.00 | 0.00 | 0.00 | 51 | 1012.5 |
| 20260505215003 | 56 | 290 | 2.0 | 8.0 | 0.00 | 0.00 | 0.00 | 50 | 1012.2 |
| 20260505214503 | 56 | 279 | 2.0 | 7.0 | 0.00 | 0.00 | 0.00 | 50 | 1012.5 |
| 20260505214003 | 56 | 287 | 3.0 | 7.0 | 0.00 | 0.00 | 0.00 | 49 | 1012.6 |
| 20260505213503 | 56 | 291 | 2.0 | 8.0 | 0.00 | 0.00 | 0.00 | 49 | 1012.6 |
| 20260505213003 | 56 | 286 | 3.0 | 8.0 | 0.00 | 0.00 | 0.00 | 48 | 1012.8 |
| 20260505212503 | 57 | 277 | 3.0 | 8.0 | 0.00 | 0.00 | 0.00 | 48 | 1012.8 |
| 20260505212003 | 57 | 270 | 3.0 | 7.0 | 0.00 | 0.00 | 0.00 | 47 | 1012.5 |
| 20260505211503 | 57 | 281 | 3.0 | 7.0 | 0.00 | 0.00 | 0.00 | 47 | 1012.6 |
| 20260505211003 | 57 | 281 | 3.0 | 7.0 | 0.00 | 0.00 | 0.00 | 46 | 1012.8 |
| 20260505210503 | 57 | 272 | 2.0 | 7.0 | 0.00 | 0.00 | 0.00 | 46 | 1012.6 |
| 20260505210003 | 57 | 282 | 2.0 | 7.0 | 0.00 | 0.00 | 0.00 | 45 | 1012.7 |
| 20260505205503 | 57 | 300 | 2.0 | 6.0 | 0.00 | 0.00 | 0.00 | 45 | 1012.8 |
| 20260505205003 | 58 | 290 | 3.0 | 8.0 | 0.00 | 0.00 | 0.00 | 45 | 1012.3 |
| 20260505204524 | 58 | 276 | 3.0 | 8.0 | 0.00 | 0.00 | 0.00 | 44 | 1012.9 |
| 20260505204003 | 58 | 276 | 3.0 | 7.0 | 0.00 | 0.00 | 0.00 | 44 | 1012.5 |
| 20260505203503 | 58 | 274 | 3.0 | 8.0 | 0.00 | 0.00 | 0.00 | 43 | 1012.5 |
| 20260505203003 | 58 | 271 | 2.0 | 8.0 | 0.00 | 0.00 | 0.00 | 44 | 1012.5 |
| 20260505202503 | 58 | 269 | 3.0 | 9.0 | 0.00 | 0.00 | 0.00 | 44 | 1012.5 |
| 20260505202004 | 58 | 273 | 4.0 | 10.0 | 0.00 | 0.00 | 0.00 | 43 | 1012.6 |
| 20260505201524 | 58 | 274 | 3.0 | 10.0 | 0.00 | 0.00 | 0.00 | 43 | 1012.6 |
| 20260505201003 | 58 | 284 | 3.0 | 8.0 | 0.00 | 0.00 | 0.00 | 43 | 1012.2 |
| 20260505200503 | 58 | 308 | 3.0 | 8.0 | 0.00 | 0.00 | 0.00 | 43 | 1012.2 |
| 20260505200004 | 58 | 311 | 2.0 | 7.0 | 0.00 | 0.00 | 0.00 | 43 | 1012.1 |
| 20260505195503 | 58 | 332 | 2.0 | 10.0 | 0.00 | 0.00 | 0.00 | 42 | 1012.1 |
| 20260505195024 | 59 | 339 | 3.0 | 13.0 | 0.00 | 0.00 | 0.00 | 42 | 1011.9 |
| 20260505194524 | 59 | 320 | 3.0 | 13.0 | 0.00 | 0.00 | 0.00 | 42 | 1011.9 |
| 20260505194003 | 59 | 304 | 4.0 | 10.0 | 0.00 | 0.00 | 0.00 | 41 | 1011.9 |
| 20260505193524 | 59 | 313 | 4.0 | 15.0 | 0.00 | 0.00 | 0.00 | 41 | 1011.8 |
| 20260505193003 | 59 | 312 | 4.0 | 15.0 | 0.00 | 0.00 | 0.00 | 41 | 1011.6 |
| 20260505192503 | 59 | 307 | 3.0 | 11.0 | 0.00 | 0.00 | 0.00 | 40 | 1011.8 |
| 20260505192024 | 60 | 311 | 3.0 | 13.0 | 0.00 | 0.00 | 0.00 | 39 | 1011.7 |
| 20260505191503 | 60 | 314 | 3.0 | 13.0 | 0.00 | 0.00 | 0.00 | 38 | 1011.4 |
| 20260505191003 | 60 | 317 | 4.0 | 13.0 | 0.00 | 0.00 | 0.00 | 38 | 1011.5 |
| 20260505190503 | 60 | 330 | 4.0 | 13.0 | 0.00 | 0.00 | 0.00 | 39 | 1011.4 |
| 20260505190004 | 60 | 329 | 3.0 | 11.0 | 0.00 | 0.00 | 0.00 | 39 | 1011.3 |
| 20260505185503 | 61 | 318 | 3.0 | 11.0 | 0.00 | 0.00 | 0.00 | 39 | 1011.3 |
| 20260505185003 | 61 | 307 | 2.0 | 7.0 | 0.00 | 0.00 | 0.00 | 39 | 1011.3 |
| 20260505184503 | 61 | 306 | 3.0 | 8.0 | 0.00 | 0.00 | 0.00 | 39 | 1011.3 |
| 20260505184024 | 61 | 307 | 3.0 | 8.0 | 0.00 | 0.00 | 0.00 | 39 | 1011.3 |
| 20260505183503 | 61 | 286 | 3.0 | 9.0 | 0.00 | 0.00 | 0.00 | 39 | 1011.3 |
| 20260505183003 | 61 | 297 | 3.0 | 10.0 | 0.00 | 0.00 | 0.00 | 40 | 1011.3 |
| 20260505182503 | 62 | 298 | 3.0 | 11.0 | 0.00 | 0.00 | 0.00 | 39 | 1011.1 |
| 20260505182003 | 61 | 291 | 4.0 | 11.0 | 0.00 | 0.00 | 0.00 | 39 | 1011.2 |
| 20260505181503 | 62 | 308 | 5.0 | 13.0 | 0.00 | 0.00 | 0.00 | 37 | 1011.2 |
| 20260505181003 | 62 | 322 | 5.0 | 13.0 | 0.00 | 0.00 | 0.00 | 37 | 1011.1 |
| 20260505180503 | 63 | 339 | 4.0 | 14.0 | 0.00 | 0.00 | 0.00 | 37 | 1011.2 |
| 20260505180003 | 62 | 343 | 4.0 | 14.0 | 0.00 | 0.00 | 0.00 | 38 | 1011.2 |
| 20260505175503 | 62 | 340 | 4.0 | 8.0 | 0.00 | 0.00 | 0.00 | 38 | 1011.0 |
| 20260505175003 | 63 | 289 | 4.0 | 11.0 | 0.00 | 0.00 | 0.00 | 37 | 1011.1 |
| 20260505174503 | 63 | 266 | 5.0 | 11.0 | 0.00 | 0.00 | 0.00 | 37 | 1011.1 |
| 20260505174003 | 63 | 299 | 5.0 | 14.0 | 0.00 | 0.00 | 0.00 | 38 | 1010.8 |
| 20260505173503 | 63 | 322 | 4.0 | 14.0 | 0.00 | 0.00 | 0.00 | 38 | 1011.0 |
| 20260505173003 | 63 | 307 | 4.0 | 13.0 | 0.00 | 0.00 | 0.00 | 37 | 1011.1 |
| 20260505172503 | 63 | 284 | 5.0 | 13.0 | 0.00 | 0.00 | 0.00 | 37 | 1010.7 |
| 20260505172003 | 63 | 268 | 5.0 | 9.0 | 0.00 | 0.00 | 0.00 | 37 | 1011.1 |
| 20260505171503 | 62 | 285 | 4.0 | 13.0 | 0.00 | 0.00 | 0.00 | 37 | 1011.1 |
| 20260505171003 | 62 | 288 | 4.0 | 13.0 | 0.00 | 0.00 | 0.00 | 38 | 1011.1 |
| 20260505170503 | 62 | 285 | 4.0 | 10.0 | 0.00 | 0.00 | 0.00 | 38 | 1011.2 |
| 20260505170003 | 62 | 273 | 5.0 | 11.0 | 0.00 | 0.00 | 0.00 | 38 | 1011.2 |
| 20260505165503 | 62 | 257 | 7.0 | 13.0 | 0.00 | 0.00 | 0.00 | 38 | 1011.2 |
| 20260505165003 | 62 | 259 | 7.0 | 14.0 | 0.00 | 0.00 | 0.00 | 38 | 1011.2 |
| 20260505164503 | 62 | 266 | 7.0 | 14.0 | 0.00 | 0.00 | 0.00 | 38 | 1011.0 |
| 20260505164003 | 62 | 265 | 6.0 | 15.0 | 0.00 | 0.00 | 0.00 | 39 | 1011.0 |
| 20260505163503 | 62 | 278 | 5.0 | 15.0 | 0.00 | 0.00 | 0.00 | 38 | 1011.2 |
| 20260505163003 | 63 | 298 | 4.0 | 11.0 | 0.00 | 0.00 | 0.00 | 37 | 1011.0 |
| 20260505162503 | 65 | 315 | 4.0 | 11.0 | 0.00 | 0.00 | 0.00 | 36 | 1011.1 |
| 20260505162003 | 65 | 301 | 4.0 | 13.0 | 0.00 | 0.00 | 0.00 | 35 | 1010.7 |
| 20260505161503 | 64 | 261 | 5.0 | 13.0 | 0.00 | 0.00 | 0.00 | 35 | 1011.0 |
| 20260505161003 | 63 | 267 | 7.0 | 16.0 | 0.00 | 0.00 | 0.00 | 36 | 1010.8 |
| 20260505160503 | 63 | 293 | 7.0 | 16.0 | 0.00 | 0.00 | 0.00 | 36 | 1010.6 |
| 20260505153003 | 64 | 258 | 7.0 | 19.0 | 0.00 | 0.00 | 0.00 | 34 | 1011.0 |
| 20260505152501 | 65 | 270 | 4.0 | 16.0 | 0.00 | 0.00 | 0.00 | 34 | 1011.0 |
| 20260505152001 | 63 | 297 | 3.0 | 6.0 | 0.00 | 0.00 | 0.00 | 36 | 1011.0 |
| 20260505091503 | 57 | 179 | 2.0 | 4.0 | 0.00 | 0.00 | 0.00 | 51 | 1012.6 |
| 20260505091003 | 57 | 169 | 2.0 | 4.0 | 0.00 | 0.00 | 0.00 | 51 | 1012.5 |
| 20260505090504 | 57 | 298 | 2.0 | 4.0 | 0.00 | 0.00 | 0.00 | 51 | 1012.6 |
| 20260505090004 | 57 | 266 | 3.0 | 8.0 | 0.00 | 0.00 | 0.00 | 52 | 1012.5 |
| 20260505085504 | 56 | 262 | 3.0 | 8.0 | 0.00 | 0.00 | 0.00 | 53 | 1012.8 |
| 20260505085003 | 58 | 249 | 2.0 | 8.0 | 0.00 | 0.00 | 0.00 | 52 | 1012.6 |
| 20260505084503 | 57 | 202 | 3.0 | 8.0 | 0.00 | 0.00 | 0.00 | 53 | 1012.5 |
| 20260505084004 | 57 | 180 | 3.0 | 8.0 | 0.00 | 0.00 | 0.00 | 56 | 1012.5 |
| 20260505083503 | 58 | 169 | 4.0 | 9.0 | 0.00 | 0.00 | 0.00 | 54 | 1012.5 |
| 20260505083025 | 57 | 163 | 3.0 | 9.0 | 0.00 | 0.00 | 0.00 | 55 | 1012.6 |
| 20260505082503 | 58 | 147 | 3.0 | 7.0 | 0.00 | 0.00 | 0.00 | 56 | 1012.5 |
| 20260505082004 | 57 | 115 | 4.0 | 7.0 | 0.00 | 0.00 | 0.00 | 59 | 1012.9 |
| 20260505081503 | 56 | 104 | 3.0 | 8.0 | 0.00 | 0.00 | 0.00 | 59 | 1012.6 |
| 20260505081004 | 57 | 115 | 3.0 | 8.0 | 0.00 | 0.00 | 0.00 | 58 | 1012.7 |
| 20260505080504 | 57 | 106 | 3.0 | 7.0 | 0.00 | 0.00 | 0.00 | 58 | 1012.8 |
| 20260505080003 | 56 | 115 | 3.0 | 7.0 | 0.00 | 0.00 | 0.00 | 59 | 1012.7 |
| 20260505075503 | 56 | 115 | 3.0 | 7.0 | 0.00 | 0.00 | 0.00 | 60 | 1012.8 |
| 20260505075004 | 56 | 113 | 3.0 | 6.0 | 0.00 | 0.00 | 0.00 | 59 | 1012.7 |
| 20260505074503 | 55 | 127 | 3.0 | 6.0 | 0.00 | 0.00 | 0.00 | 63 | 1012.8 |
| 20260505074003 | 55 | 138 | 3.0 | 7.0 | 0.00 | 0.00 | 0.00 | 64 | 1012.9 |
| 20260505073504 | 55 | 148 | 3.0 | 7.0 | 0.00 | 0.00 | 0.00 | 64 | 1012.7 |
| 20260505073025 | 55 | 152 | 3.0 | 6.0 | 0.00 | 0.00 | 0.00 | 65 | 1012.6 |
| 20260505072504 | 54 | 125 | 3.0 | 6.0 | 0.00 | 0.00 | 0.00 | 64 | 1012.7 |
| 20260505072004 | 55 | 93 | 3.0 | 6.0 | 0.00 | 0.00 | 0.00 | 62 | 1012.7 |
| 20260505071503 | 54 | 92 | 2.0 | 6.0 | 0.00 | 0.00 | 0.00 | 61 | 1012.6 |
| 20260505071004 | 55 | 98 | 1.0 | 3.0 | 0.00 | 0.00 | 0.00 | 60 | 1012.6 |
| 20260505070525 | 56 | 104 | 1.0 | 3.0 | 0.00 | 0.00 | 0.00 | 58 | 1012.5 |
| 20260505070004 | 56 | 174 | 0.0 | 2.0 | 0.00 | 0.00 | 0.00 | 56 | 1012.6 |
| 20260505065504 | 55 | 203 | 1.0 | 2.0 | 0.00 | 0.00 | 0.00 | 59 | 1012.6 |
| 20260505065003 | 54 | 233 | 1.0 | 3.0 | 0.00 | 0.00 | 0.00 | 60 | 1012.6 |
| 20260505064503 | 54 | 246 | 1.0 | 3.0 | 0.00 | 0.00 | 0.00 | 61 | 1012.5 |
| 20260505064003 | 53 | 259 | 1.0 | 2.0 | 0.00 | 0.00 | 0.00 | 62 | 1012.3 |
| 20260505063524 | 53 | 249 | 1.0 | 2.0 | 0.00 | 0.00 | 0.00 | 62 | 1012.5 |
| 20260505063025 | 53 | 249 | 1.0 | 4.0 | 0.00 | 0.00 | 0.00 | 63 | 1012.5 |
| 20260505062503 | 53 | 253 | 2.0 | 4.0 | 0.00 | 0.00 | 0.00 | 63 | 1012.5 |
| 20260505062003 | 53 | 253 | 1.0 | 3.0 | 0.00 | 0.00 | 0.00 | 63 | 1012.3 |
| 20260505061503 | 53 | 257 | 1.0 | 3.0 | 0.00 | 0.00 | 0.00 | 64 | 1012.6 |
| 20260505061003 | 53 | 276 | 2.0 | 4.0 | 0.00 | 0.00 | 0.00 | 64 | 1012.5 |
| 20260505060503 | 52 | 276 | 3.0 | 4.0 | 0.00 | 0.00 | 0.00 | 65 | 1012.5 |
| 20260505060004 | 52 | 266 | 3.0 | 4.0 | 0.00 | 0.00 | 0.00 | 65 | 1012.3 |
| 20260505055503 | 52 | 265 | 3.0 | 6.0 | 0.00 | 0.00 | 0.00 | 65 | 1012.5 |
| 20260505055003 | 52 | 267 | 3.0 | 6.0 | 0.00 | 0.00 | 0.00 | 65 | 1012.5 |
| 20260505054504 | 52 | 271 | 4.0 | 7.0 | 0.00 | 0.00 | 0.00 | 65 | 1012.3 |
| 20260505054024 | 52 | 273 | 4.0 | 7.0 | 0.00 | 0.00 | 0.00 | 66 | 1012.6 |
| 20260505053504 | 52 | 264 | 3.0 | 6.0 | 0.00 | 0.00 | 0.00 | 65 | 1012.1 |
| 20260505053003 | 52 | 260 | 3.0 | 6.0 | 0.00 | 0.00 | 0.00 | 66 | 1011.9 |
| 20260505052503 | 52 | 260 | 3.0 | 6.0 | 0.00 | 0.00 | 0.00 | 66 | 1012.3 |
| 20260505052003 | 52 | 256 | 2.0 | 4.0 | 0.00 | 0.00 | 0.00 | 67 | 1012.2 |
| 20260505051524 | 52 | 260 | 2.0 | 4.0 | 0.00 | 0.00 | 0.00 | 66 | 1011.9 |
| 20260505051003 | 52 | 264 | 2.0 | 4.0 | 0.00 | 0.00 | 0.00 | 66 | 1012.0 |
| 20260505050504 | 52 | 263 | 2.0 | 4.0 | 0.00 | 0.00 | 0.00 | 67 | 1012.1 |
| 20260505041503 | 52 | 275 | 2.0 | 6.0 | 0.00 | 0.00 | 0.00 | 67 | 1012.1 |
| 20260505041003 | 52 | 273 | 3.0 | 6.0 | 0.00 | 0.00 | 0.00 | 67 | 1012.1 |
| 20260505040503 | 52 | 265 | 3.0 | 6.0 | 0.00 | 0.00 | 0.00 | 66 | 1012.2 |
| 20260505040004 | 52 | 256 | 2.0 | 4.0 | 0.00 | 0.00 | 0.00 | 66 | 1012.0 |
| 20260505035503 | 52 | 257 | 3.0 | 6.0 | 0.00 | 0.00 | 0.00 | 65 | 1012.1 |
| 20260505035003 | 53 | 263 | 3.0 | 6.0 | 0.00 | 0.00 | 0.00 | 65 | 1012.3 |
| 20260505034503 | 53 | 266 | 3.0 | 4.0 | 0.00 | 0.00 | 0.00 | 64 | 1012.0 |
| 20260505034025 | 53 | 264 | 2.0 | 4.0 | 0.00 | 0.00 | 0.00 | 64 | 1012.1 |
| 20260505033503 | 53 | 259 | 2.0 | 3.0 | 0.00 | 0.00 | 0.00 | 64 | 1012.0 |
| 20260505033003 | 53 | 257 | 1.0 | 3.0 | 0.00 | 0.00 | 0.00 | 63 | 1012.0 |
| 20260505032503 | 53 | 267 | 0.0 | 3.0 | 0.00 | 0.00 | 0.00 | 63 | 1012.2 |
| 20260505032003 | 53 | 297 | 0.0 | 1.0 | 0.00 | 0.00 | 0.00 | 64 | 1012.1 |
| 20260505031524 | 53 | 345 | 0.0 | 2.0 | 0.00 | 0.00 | 0.00 | 64 | 1012.3 |
| 20260505031003 | 53 | 353 | 0.0 | 2.0 | 0.00 | 0.00 | 0.00 | 63 | 1012.1 |
| 20260505030503 | 53 | 273 | 1.0 | 6.0 | 0.00 | 0.00 | 0.00 | 63 | 1012.0 |
| 20260505030003 | 53 | 276 | 2.0 | 6.0 | 0.00 | 0.00 | 0.00 | 63 | 1012.1 |
| 20260505025503 | 53 | 287 | 1.0 | 6.0 | 0.00 | 0.00 | 0.00 | 63 | 1012.1 |
| 20260505025004 | 53 | 318 | 1.0 | 7.0 | 0.00 | 0.00 | 0.00 | 63 | 1012.0 |
| 20260505024503 | 53 | 298 | 1.0 | 7.0 | 0.00 | 0.00 | 0.00 | 63 | 1012.2 |
| 20260505024003 | 53 | 269 | 2.0 | 7.0 | 0.00 | 0.00 | 0.00 | 63 | 1012.3 |
| 20260505023524 | 53 | 287 | 4.0 | 10.0 | 0.00 | 0.00 | 0.00 | 63 | 1012.2 |
| 20260505023003 | 53 | 279 | 5.0 | 10.0 | 0.00 | 0.00 | 0.00 | 62 | 1012.3 |
| 20260505022524 | 53 | 264 | 6.0 | 11.0 | 0.00 | 0.00 | 0.00 | 62 | 1012.5 |
| 20260505022024 | 53 | 261 | 6.0 | 11.0 | 0.00 | 0.00 | 0.00 | 62 | 1012.2 |
| 20260505021503 | 53 | 271 | 4.0 | 9.0 | 0.00 | 0.00 | 0.00 | 62 | 1012.2 |
| 20260505021003 | 53 | 283 | 4.0 | 8.0 | 0.00 | 0.00 | 0.00 | 63 | 1012.3 |
| 20260505020503 | 53 | 274 | 4.0 | 8.0 | 0.00 | 0.00 | 0.00 | 62 | 1012.2 |
| 20260505020003 | 53 | 266 | 4.0 | 10.0 | 0.00 | 0.00 | 0.00 | 63 | 1012.5 |
| 20260505015503 | 53 | 263 | 5.0 | 13.0 | 0.00 | 0.00 | 0.00 | 63 | 1012.5 |
| 20260505015003 | 53 | 260 | 6.0 | 13.0 | 0.00 | 0.00 | 0.00 | 62 | 1012.5 |
| 20260505014525 | 53 | 265 | 5.0 | 11.0 | 0.00 | 0.00 | 0.00 | 62 | 1012.3 |
| 20260505014003 | 53 | 262 | 6.0 | 10.0 | 0.00 | 0.00 | 0.00 | 62 | 1012.6 |
| 20260505013503 | 53 | 262 | 6.0 | 14.0 | 0.00 | 0.00 | 0.00 | 62 | 1012.3 |
| 20260505013003 | 53 | 274 | 6.0 | 14.0 | 0.00 | 0.00 | 0.00 | 62 | 1012.5 |
| 20260505012503 | 53 | 272 | 6.0 | 10.0 | 0.00 | 0.00 | 0.00 | 62 | 1012.6 |
| 20260505012003 | 53 | 264 | 5.0 | 10.0 | 0.00 | 0.00 | 0.00 | 62 | 1012.8 |
| 20260505011503 | 53 | 270 | 5.0 | 13.0 | 0.00 | 0.00 | 0.00 | 62 | 1012.6 |
| 20260505011003 | 54 | 261 | 6.0 | 13.0 | 0.00 | 0.00 | 0.00 | 61 | 1012.7 |
| 20260505010503 | 54 | 264 | 6.0 | 14.0 | 0.00 | 0.00 | 0.00 | 61 | 1012.6 |
| 20260505010004 | 54 | 276 | 7.0 | 14.0 | 0.00 | 0.00 | 0.00 | 61 | 1012.7 |
| 20260505005506 | 54 | 271 | 6.0 | 11.0 | 0.00 | 0.00 | 0.00 | 60 | 1012.6 |
| 20260505005004 | 54 | 267 | 6.0 | 11.0 | 0.00 | 0.00 | 0.00 | 60 | 1012.8 |
| 20260505004504 | 54 | 270 | 6.0 | 11.0 | 0.00 | 0.00 | 0.00 | 60 | 1012.7 |
| 20260505004003 | 54 | 270 | 7.0 | 18.0 | 0.00 | 0.00 | 0.00 | 61 | 1012.8 |
| 20260505003503 | 54 | 268 | 8.0 | 18.0 | 0.00 | 0.00 | 0.00 | 60 | 1012.8 |
| 20260505003003 | 54 | 272 | 7.0 | 14.0 | 0.00 | 0.00 | 0.00 | 61 | 1012.9 |
| 20260505002503 | 54 | 272 | 7.0 | 14.0 | 0.00 | 0.00 | 0.00 | 61 | 1012.8 |
| 20260505002003 | 55 | 270 | 7.0 | 13.0 | 0.00 | 0.00 | 0.00 | 61 | 1012.8 |
| 20260505001524 | 55 | 273 | 6.0 | 13.0 | 0.00 | 0.00 | 0.00 | 61 | 1012.9 |
| 20260505001003 | 55 | 270 | 6.0 | 13.0 | 0.00 | 0.00 | 0.00 | 61 | 1013.1 |
| 20260505000503 | 55 | 264 | 6.0 | 13.0 | 0.00 | 0.00 | 0.00 | 60 | 1012.7 |
| 20260505000003 | 55 | 262 | 7.0 | 14.0 | 0.00 | 0.00 | 0.00 | 60 | 1013.0 |